• In Netherlands
  • List of Countries
  • For 7 days
  • Water Temperature
  • Satellite Maps
  • Weather Map
  • Weather Widgets
  • user-avatar
    Login

    Hourly Weather Mendoza

    Today, 29 April, Saturday

    Time Temperature Precipitation Wind Pressure Humidity
    00:00 +16°C° 0 mm 1 mps 699 mmHg 45%
    01:00 +15°C° 0 mm 1 mps 699 mmHg 47%
    02:00 +15°C° 0 mm 1 mps 699 mmHg 49%
    03:00 +15°C° 0 mm 1 mps 698 mmHg 50%
    04:00 +14°C° 0 mm 1 mps 698 mmHg 52%
    05:00 +14°C° 0 mm 1 mps 698 mmHg 52%
    06:00 +15°C° 0 mm 1 mps 699 mmHg 53%
    07:00 +15°C° 0 mm 1 mps 699 mmHg 53%
    08:00 +18°C° 0 mm 1 mps 699 mmHg 47%
    09:00 +20°C° 0 mm 1 mps 700 mmHg 40%
    10:00 +23°C° 0 mm 1 mps 700 mmHg 33%
    11:00 +24°C° 0 mm 2 mps 700 mmHg 31%
    12:00 +25°C° 0 mm 2 mps 700 mmHg 29%
    13:00 +26°C° 0 mm 2 mps 700 mmHg 27%
    14:00 +25°C° 0 mm 2 mps 700 mmHg 28%
    15:00 +25°C° 0 mm 2 mps 700 mmHg 30%
    16:00 +24°C° 0 mm 2 mps 700 mmHg 32%
    17:00 +23°C° 0 mm 2 mps 700 mmHg 37%
    18:00 +21°C° 0 mm 1 mps 700 mmHg 41%
    19:00 +19°C° 0 mm 1 mps 700 mmHg 46%
    20:00 +19°C° 0 mm 1 mps 700 mmHg 46%
    21:00 +18°C° 0 mm 1 mps 700 mmHg 47%
    22:00 +18°C° 0 mm 1 mps 700 mmHg 48%
    23:00 +16°C° 0 mm 1 mps 700 mmHg 49%

    Tomorrow, 30 April, Sunday

    Time Temperature Precipitation Wind Pressure Humidity
    00:00 +16°C° 0 mm 1 mps 700 mmHg 49%
    01:00 +15°C° 0 mm 1 mps 699 mmHg 50%
    02:00 +15°C° 0 mm 1 mps 699 mmHg 50%
    03:00 +15°C° 0 mm 1 mps 699 mmHg 51%
    04:00 +14°C° 0 mm 1 mps 698 mmHg 51%
    05:00 +15°C° 0 mm 1 mps 699 mmHg 50%
    06:00 +15°C° 0 mm 1 mps 699 mmHg 49%
    07:00 +15°C° 0 mm 1 mps 699 mmHg 49%
    08:00 +18°C° 0 mm 2 mps 699 mmHg 42%
    09:00 +20°C° 0 mm 2 mps 700 mmHg 36%
    10:00 +23°C° 0 mm 2 mps 700 mmHg 30%
    11:00 +24°C° 0 mm 3 mps 700 mmHg 28%
    12:00 +25°C° 0 mm 3 mps 699 mmHg 25%
    13:00 +26°C° 0 mm 3 mps 699 mmHg 23%
    14:00 +26°C° 0 mm 3 mps 699 mmHg 25%
    15:00 +25°C° 0 mm 3 mps 698 mmHg 27%
    16:00 +25°C° 0 mm 3 mps 698 mmHg 29%
    17:00 +23°C° 0 mm 2 mps 698 mmHg 33%
    18:00 +20°C° 0 mm 2 mps 698 mmHg 37%
    19:00 +19°C° 0 mm 2 mps 699 mmHg 40%
    20:00 +18°C° 0 mm 2 mps 699 mmHg 42%
    21:00 +18°C° 0 mm 2 mps 699 mmHg 44%
    22:00 +17°C° 0 mm 2 mps 699 mmHg 45%
    23:00 +17°C° 0 mm 2 mps 698 mmHg 45%

    Day after tomorrow, 1 May, Monday

    Time Temperature Precipitation Wind Pressure Humidity
    00:00 +16°C° 0 mm 2 mps 698 mmHg 46%
    01:00 +16°C° 0 mm 1 mps 698 mmHg 46%
    02:00 +16°C° 0 mm 2 mps 698 mmHg 45%
    03:00 +15°C° 0 mm 2 mps 697 mmHg 44%
    04:00 +15°C° 0 mm 2 mps 697 mmHg 44%
    05:00 +15°C° 0 mm 2 mps 697 mmHg 43%
    06:00 +15°C° 0 mm 2 mps 697 mmHg 42%
    07:00 +16°C° 0 mm 2 mps 698 mmHg 41%
    08:00 +18°C° 0 mm 2 mps 698 mmHg 36%
    09:00 +21°C° 0 mm 3 mps 698 mmHg 30%
    10:00 +24°C° 0 mm 3 mps 699 mmHg 24%
    11:00 +25°C° 0 mm 3 mps 698 mmHg 23%
    12:00 +26°C° 0 mm 4 mps 698 mmHg 21%
    13:00 +27°C° 0 mm 4 mps 697 mmHg 19%
    14:00 +27°C° 0 mm 4 mps 697 mmHg 21%
    15:00 +26°C° 0 mm 3 mps 697 mmHg 23%
    16:00 +25°C° 0 mm 3 mps 696 mmHg 25%
    17:00 +24°C° 0 mm 3 mps 696 mmHg 28%
    18:00 +21°C° 0 mm 3 mps 696 mmHg 32%
    19:00 +19°C° 0 mm 2 mps 697 mmHg 35%
    20:00 +19°C° 0 mm 2 mps 697 mmHg 38%
    21:00 +18°C° 0 mm 2 mps 696 mmHg 40%
    22:00 +17°C° 0 mm 2 mps 696 mmHg 43%
    23:00 +17°C° 0 mm 2 mps 696 mmHg 44%

    2 May, Tuesday

    Time Temperature Precipitation Wind Pressure Humidity
    00:00 +16°C° 0 mm 2 mps 696 mmHg 45%
    01:00 +16°C° 0 mm 2 mps 696 mmHg 46%
    02:00 +15°C° 0 mm 2 mps 695 mmHg 47%
    03:00 +15°C° 0 mm 2 mps 695 mmHg 48%
    04:00 +15°C° 0 mm 2 mps 695 mmHg 48%
    05:00 +15°C° 0 mm 2 mps 695 mmHg 49%
    06:00 +15°C° 0 mm 2 mps 696 mmHg 50%
    07:00 +15°C° 0 mm 2 mps 696 mmHg 51%
    08:00 +18°C° 0 mm 2 mps 696 mmHg 44%
    09:00 +20°C° 0 mm 2 mps 697 mmHg 38%
    10:00 +23°C° 0 mm 2 mps 697 mmHg 31%
    11:00 +24°C° 0 mm 2 mps 697 mmHg 28%
    12:00 +25°C° 0 mm 2 mps 697 mmHg 25%
    13:00 +26°C° 0 mm 3 mps 697 mmHg 22%
    14:00 +26°C° 0 mm 3 mps 697 mmHg 23%
    15:00 +25°C° 0 mm 3 mps 697 mmHg 25%
    16:00 +25°C° 0 mm 2 mps 697 mmHg 26%
    17:00 +22°C° 0 mm 3 mps 698 mmHg 30%
    18:00 +21°C° 0 mm 3 mps 699 mmHg 34%
    19:00 +19°C° 0 mm 3 mps 699 mmHg 39%
    20:00 +19°C° 0 mm 3 mps 700 mmHg 40%
    21:00 +18°C° 0 mm 3 mps 700 mmHg 42%
    22:00 +18°C° 0 mm 3 mps 700 mmHg 43%
    23:00 +17°C° 0 mm 3 mps 700 mmHg 46%

    3 May, Wednesday

    Time Temperature Precipitation Wind Pressure Humidity
    00:00 +16°C° 0 mm 3 mps 700 mmHg 49%
    01:00 +16°C° 0 mm 3 mps 700 mmHg 52%
    02:00 +16°C° 0 mm 3 mps 700 mmHg 53%
    03:00 +15°C° 0 mm 2 mps 700 mmHg 54%
    04:00 +15°C° 0 mm 2 mps 700 mmHg 55%
    05:00 +15°C° 0 mm 2 mps 700 mmHg 56%
    06:00 +15°C° 0 mm 2 mps 700 mmHg 57%
    07:00 +15°C° 0 mm 2 mps 701 mmHg 58%
    08:00 +17°C° 0 mm 2 mps 701 mmHg 53%
    09:00 +19°C° 0 mm 2 mps 701 mmHg 48%
    10:00 +21°C° 0 mm 2 mps 701 mmHg 43%
    11:00 +23°C° 0 mm 2 mps 701 mmHg 41%
    12:00 +23°C° 0 mm 2 mps 700 mmHg 40%
    13:00 +24°C° 0 mm 3 mps 699 mmHg 38%
    14:00 +24°C° 0 mm 3 mps 699 mmHg 39%
    15:00 +24°C° 0 mm 3 mps 699 mmHg 41%
    16:00 +22°C° 0 mm 3 mps 698 mmHg 43%
    17:00 +21°C° 0 mm 2 mps 698 mmHg 48%
    18:00 +20°C° 0 mm 2 mps 698 mmHg 53%
    19:00 +18°C° 0 mm 2 mps 698 mmHg 58%
    20:00 +18°C° 0 mm 2 mps 698 mmHg 58%
    21:00 +18°C° 0 mm 2 mps 698 mmHg 58%
    22:00 +18°C° 0 mm 1 mps 698 mmHg 58%
    23:00 +18°C° 0 mm 1 mps 698 mmHg 58%

    4 May, Thursday

    Time Temperature Precipitation Wind Pressure Humidity
    00:00 +16°C° 0 mm 1 mps 697 mmHg 58%
    01:00 +16°C° 0 mm 1 mps 697 mmHg 58%
    02:00 +16°C° 0 mm 1 mps 697 mmHg 58%
    03:00 +15°C° 0 mm 1 mps 696 mmHg 57%
    04:00 +15°C° 0 mm 1 mps 696 mmHg 56%
    05:00 +15°C° 0 mm 2 mps 697 mmHg 52%
    06:00 +16°C° 0 mm 2 mps 697 mmHg 49%
    07:00 +16°C° 0 mm 2 mps 697 mmHg 45%
    08:00 +19°C° 0 mm 2 mps 697 mmHg 39%
    09:00 +21°C° 0 mm 3 mps 697 mmHg 34%
    10:00 +24°C° 0 mm 3 mps 698 mmHg 28%
    11:00 +25°C° 0 mm 3 mps 697 mmHg 27%
    12:00 +26°C° 0 mm 4 mps 696 mmHg 26%
    13:00 +27°C° 0 mm 4 mps 696 mmHg 25%
    14:00 +26°C° 0 mm 3 mps 696 mmHg 28%
    15:00 +26°C° 0 mm 3 mps 696 mmHg 30%
    16:00 +25°C° 0 mm 3 mps 695 mmHg 33%
    17:00 +24°C° 0 mm 2 mps 696 mmHg 37%
    18:00 +21°C° 0 mm 2 mps 696 mmHg 41%
    19:00 +21°C° 0 mm 1 mps 696 mmHg 45%
    20:00 +19°C° 0 mm 2 mps 696 mmHg 47%
    21:00 +19°C° 0 mm 2 mps 696 mmHg 49%
    22:00 +19°C° 0 mm 2 mps 696 mmHg 51%
    23:00 +18°C° 0 mm 2 mps 696 mmHg 52%
    Show more